STARLINK-35063, 65528

Orbit data source: Space-Track

STARLINK-35063, 65528 is a payload satellite owned by SpaceX/Seattle (US) in SSO that was launched on Sat, 06 Sep 2025 UTC via an FALCON 9 launch vehicle from the Air Force Eastern Test Range (AFETR). Payload-class satellites include a variety of spacecraft equipped with specific instruments for various scientific and technological missions. These include communications satellites like Starlink; space stations such as the ISS; scientific satellites like the Hubble; Earth observation satellites from companies like Planet Labs, Umbra, and HawkEye 360; GPS; miniature CubeSats for education and research; and military/defense satellites.

Loading next visibility...
Identifier
65528, 2025-200J
Orbit
SSO
Country
Flag of USUS
Related business
Manufacturer
SpaceX/Seattle
Mission
Operational Commercial Communications
Bus & Motor
STARLINK V2MO, Unknown motor
Mass
575 kg wet, ~530 kg dry
Launch date (UTC)
2025-09-06 (9 months ago)
Launch vehicle
FALCON 9
Launch site
Air Force Eastern Test Range (AFETR)
Object type
Payload
Rocket body
Debris
Shape & HBR
Box + 2 Pan, 17.7 m
Radar Cross Section
36.964 m², Large (>1 m²)

Expand to show TLE details & history
Last TLE update: 23 hours ago

TLE from 23 hours ago
0 STARLINK-35063
1 65528U 25200J   26170.88991627  .00004545  00000-0  31867-3 0  9997
2 65528  97.3392 239.5350 0001846 126.5661 233.5737 15.05662958 44515
Epoch: 2026-06-19T21:21Z
TLE epoch observation values (Epoch: 2026-06-19T21:21:28.765Z)
Latitude
-0°
Longitude
11.05274°
Altitude
553.304 km
Speed
7.585 km/s
True Right ascension
15h 58m 08s
True Declination
0° 00' 00"
Sunlit
Object was in full shadow at epoch
Visualization orbit readout
Latitude
Unknown
Longitude
Unknown
Altitude
Unknown
Speed
Unknown
Apparent Right ascension
Unknown
Apparent Declination
Unknown
Sunlit
N/A
Visualization observer readout
Local Sidereal Time
07:13:20
Azimuth
Unknown
Elevation
Unknown
Doppler factor
Unknown
Orbital elements
Apogee altitude
547.732 km
Perigee altitude
545.175 km
Semi-major axis
6,924.591 km
Eccentricity
0.00018
Inclination
97.3392°
RAAN
239.535°
Arg. of periapsis
126.5661°
True anomaly
233.55668°
Mean anomaly
233.5737°
Eccentric anomaly
233.56519°
Mean motion
3.76662 °/min
Orbital period
95.58 mins
BSTAR
0.00031867
Loading maneuver chart data...
Computing Atmospheric mass density...
Loading historical data...
Loading historical data...
Loading historical data...
Loading historical data...
Loading historical data...
Loading historical data...
Loading historical data...

Documentation

Showing up to 5 results
|